Terug naar catalogus

THORAD AGENA D DEB

ActiefLEO
NORAD 4751·DEBRIS·🇺🇸 United States

Gelanceerd Apr 8, 1970 vanaf Vandenberg Space Force Base

Loading…

Volgende Passages (komende 24 uur)

TLE

VersSource: Space-Track

Epoch: Sep 14, 2026, 06:23 UTC

1 04751U 70025CZ  26257.26612977  .00001272  00000-0  11083-2 0  9990
2 04751 100.1179   4.9894 0008317 194.8971 165.1939 13.88111914817928

Volg THORAD AGENA D DEB in realtime met AllMySat

Download on the App Store